Impacts METAR Board
IDs:

KPHL - Philadelphia Intl, PA, US

Updated at: 0900 UTC 18 Jan 2019
Potential Impact None Slight Moderate High
Time 17/21Z 17/22Z 17/23Z 18/00Z 18/01Z 18/02Z 18/03Z 18/04Z 18/05Z 18/06Z 18/07Z 18/08Z 18/09Z
Temp34 31 32 32 32 32 31 31 30 29 29 30 30
Dewpt7 7 11 14 19 20 21 23 26 27 27 27 28
Altim30.30 30.30 30.30 30.31 30.26 30.25 30.24 30.24 30.22 30.19 30.18 30.16 30.14
VIS10 10 10 10 10 10 10 7 2.5 2 3 3 2
CIG230 250 250 49 55 50 47 44 25 33 33 48 28
CoverOVCBKNBKNOVCOVCOVCOVCOVCOVCOVCOVCOVCOVC
FltCatVFRVFRVFRVFRVFRVFRVFRVFRIFRIFRMVFRMVFRIFR
WX-------------SN-SN-SN BR-SN BR-SN BR-SN BR-SN BR
WDir120120100130110909008050505060
WSpd6 5 3 5 8 5 6 0 4 4 3 4 3
WGst-- -- -- -- -- -- -- -- -- -- -- -- --
Raw hourly METARs
KPHL 172054Z 12006KT 10SM SCT160 OVC230 01/M14 A3030 RMK AO2 SLP261 T00111139 56020 $
KPHL 172154Z 12005KT 10SM FEW160 BKN250 M01/M14 A3030 RMK AO2 SLP260 T10061139 $
KPHL 172254Z 10003KT 10SM FEW160 BKN250 00/M12 A3030 RMK AO2 SLP260 T00001117 $
KPHL 172354Z 13005KT 10SM BKN049 OVC120 00/M10 A3031 RMK AO2 SLP262 T00001100 10011 21006 53001 $
KPHL 180054Z 11008KT 10SM OVC055 00/M07 A3026 RMK AO2 SLP248 T00001072 $
KPHL 180154Z 09005KT 10SM BKN050 OVC100 00/M07 A3025 RMK AO2 SLP242 T00001067 $
KPHL 180254Z 09006KT 10SM -SN OVC047 M01/M06 A3024 RMK AO2 SNB46 SLP240 P0000 60000 T10061061 56022 $
KPHL 180354Z 00000KT 7SM -SN SCT030 BKN044 OVC055 M01/M05 A3024 RMK AO2 SLP240 P0000 T10061050 $
KPHL 180505Z 08004KT 2 1/2SM -SN BR BKN025 OVC045 M01/M03 A3022 RMK AO2 P0000 T10111033 $
KPHL 180554Z 05004KT 2SM -SN BR BKN033 OVC044 M02/M03 A3019 RMK AO2 SLP224 P0001 60002 T10171028 10000 21017 58016 $
KPHL 180654Z 05003KT 3SM -SN BR OVC033 M02/M03 A3018 RMK AO2 SLP218 P0001 T10171028 $
KPHL 180802Z 05004KT 3SM -SN BR FEW016 SCT032 OVC048 M01/M03 A3016 RMK AO2 P0000 T10111028 $
KPHL 180854Z 06003KT 2SM -SN BR BKN028 OVC042 M01/M02 A3014 RMK AO2 SLP204 P0000 60002 T10111022 58020 $



Page loaded:  09:09 UTC  |   01:09 AM Pacific  |   02:09 AM Mountain  |   03:09 AM Central  |   04:09 AM Eastern

 

ADVISORIES

FORECASTS

FORECASTS

OBSERVATIONS

USER TOOLS

ABOUT US